Location: Newark
(56.0692°N, 115.8617°E)
Time: 07:56:03
(UTC+00:00)

Transit 2A - All Passes

Search period start: 26 May 2020 00:00
Search period end: 05 June 2020 00:00
Orbit: 594 x 965 km, 66.7° (Epoch: 25 May)

Date Brightness Start Highest point End Pass type
(mag) Time Alt. Az. Time Alt. Az. Time Alt. Az.
26 May - 06:28:38 10° S 06:33:01 31° ESE 06:37:51 10° NE daylight
26 May - 08:10:40 10° SW 08:15:49 72° NW 08:21:37 10° NE daylight
26 May - 09:55:03 10° W 09:59:57 33° NNW 10:05:19 10° NE daylight
26 May - 11:39:42 10° NW 11:44:43 30° N 11:50:05 10° ENE daylight
26 May - 13:23:24 10° NW 13:29:09 51° NNE 13:35:18 10° ESE daylight
26 May - 15:06:42 10° NW 15:12:39 60° SW 15:18:54 10° SSE visible
26 May - 16:51:16 10° WNW 16:54:56 16° WSW 16:58:41 10° SW visible
27 May - 05:55:10 10° SSE 05:59:07 23° ESE 06:03:24 10° ENE daylight
27 May - 07:36:29 10° SW 07:41:38 89° NW 07:47:25 10° NE daylight
27 May - 09:20:34 10° W 09:25:33 37° NNW 09:31:01 10° NE daylight
27 May - 11:05:20 10° NW 11:10:15 29° N 11:15:34 10° ENE daylight
27 May - 12:49:12 10° NW 12:54:50 44° NNE 13:00:50 10° E daylight
27 May - 14:32:31 10° NW 14:38:33 75° SW 14:44:53 10° SSE visible
27 May - 16:16:33 10° WNW 16:21:04 22° WSW 16:25:43 10° SSW visible
28 May - 05:21:59 10° SSE 05:25:17 17° ESE 05:28:47 10° ENE daylight
28 May - 07:02:24 10° SSW 07:07:29 73° SE 07:13:13 10° NE daylight
28 May - 08:46:07 10° W 08:51:11 41° NNW 08:56:46 10° NE daylight
28 May - 10:30:55 10° WNW 10:35:47 29° N 10:41:04 10° ENE daylight
28 May - 12:14:59 10° NW 12:20:28 39° NNE 12:26:20 10° E daylight
28 May - 13:58:20 10° NW 14:04:23 89° ENE 14:10:47 10° SE visible
28 May - 15:42:04 10° WNW 15:47:10 28° WSW 15:52:25 10° SSW visible
29 May - 04:49:18 10° SE 04:51:29 13° ESE 04:53:44 10° ENE daylight
29 May - 06:28:26 10° SSW 06:33:24 57° SE 06:38:59 10° NE daylight
29 May - 08:11:42 10° WSW 08:16:50 48° NNW 08:22:32 10° NE daylight
29 May - 09:56:27 10° WNW 10:01:21 30° N 10:06:37 10° NE daylight
29 May - 11:40:44 10° NW 11:46:05 35° NNE 11:51:47 10° E daylight
29 May - 13:24:10 10° NW 13:30:11 75° NE 13:36:33 10° SE daylight
29 May - 15:07:42 10° NW 15:13:11 36° WSW 15:18:53 10° S visible
30 May - 05:54:34 10° S 05:59:22 43° ESE 06:04:43 10° NE daylight
30 May - 07:37:21 10° WSW 07:42:32 57° NW 07:48:19 10° NE daylight
30 May - 09:21:59 10° WNW 09:26:54 31° N 09:32:13 10° NE daylight
30 May - 11:06:28 10° NW 11:11:40 33° NNE 11:17:14 10° ENE daylight
30 May - 12:50:00 10° NW 12:55:57 63° NE 13:02:15 10° ESE daylight
30 May - 14:33:24 10° NW 14:39:11 45° WSW 14:45:12 10° S visible
30 May - 16:19:18 10° W 16:21:08 11° W 16:22:59 10° WSW visible
31 May - 05:20:52 10° S 05:25:24 33° ESE 05:30:24 10° NE daylight
31 May - 07:03:03 10° SW 07:08:17 69° NW 07:14:07 10° NE daylight
31 May - 08:47:30 10° W 08:52:28 33° NNW 08:57:52 10° NE daylight
31 May - 10:32:07 10° NW 10:37:13 31° N 10:42:41 10° ENE daylight
31 May - 12:15:49 10° NW 12:21:40 53° NE 12:27:51 10° ESE daylight
31 May - 13:59:10 10° NW 14:05:07 58° SW 14:11:21 10° SSE visible
31 May - 15:43:51 10° WNW 15:47:20 16° WSW 15:50:53 10° SW visible
01 Jun - 04:47:21 10° SSE 04:51:29 25° ESE 04:55:59 10° ENE daylight
01 Jun - 06:28:51 10° SW 06:34:04 85° NW 06:39:56 10° NE daylight
01 Jun - 08:13:01 10° W 08:18:03 36° NNW 08:23:33 10° NE daylight
01 Jun - 09:57:46 10° NW 10:02:47 30° N 10:08:09 10° ENE daylight
01 Jun - 11:41:37 10° NW 11:47:20 46° NNE 11:53:24 10° ESE daylight
01 Jun - 13:24:56 10° NW 13:31:01 72° SW 13:37:22 10° SSE daylight
01 Jun - 15:09:05 10° WNW 15:13:29 21° WSW 15:17:59 10° SSW visible
02 Jun - 04:14:06 10° SSE 04:17:37 19° ESE 04:21:25 10° ENE daylight
02 Jun - 05:54:44 10° SW 05:59:55 77° SE 06:05:44 10° NE daylight
02 Jun - 07:38:33 10° W 07:43:40 41° NNW 07:49:17 10° NE daylight
02 Jun - 09:23:21 10° WNW 09:28:19 29° N 09:33:38 10° ENE daylight
02 Jun - 11:07:25 10° NW 11:12:59 40° NNE 11:18:54 10° E daylight
02 Jun - 12:50:46 10° NW 12:56:52 87° SW 13:03:16 10° SE daylight
02 Jun - 14:34:33 10° WNW 14:39:35 27° WSW 14:44:45 10° SSW visible
03 Jun - 03:41:14 10° SE 03:43:49 14° ESE 03:46:32 10° ENE daylight
03 Jun - 05:20:44 10° SSW 05:25:48 60° SE 05:31:30 10° NE daylight
03 Jun - 07:04:08 10° WSW 07:09:18 47° NNW 07:15:03 10° NE daylight
03 Jun - 08:48:54 10° WNW 08:53:51 30° N 08:59:11 10° NE daylight
03 Jun - 10:33:10 10° NW 10:38:36 36° NNE 10:44:22 10° E daylight
03 Jun - 12:16:35 10° NW 12:22:40 78° NE 12:29:04 10° SE daylight
03 Jun - 14:00:09 10° NW 14:05:38 34° WSW 14:11:16 10° S visible
04 Jun - 04:46:51 10° SSW 04:51:46 46° ESE 04:57:15 10° NE daylight
04 Jun - 06:29:45 10° WSW 06:35:00 55° NW 06:40:50 10° NE daylight
04 Jun - 08:14:26 10° WNW 08:19:25 31° N 08:24:47 10° NE daylight
04 Jun - 09:58:54 10° NW 10:04:11 33° NNE 10:09:49 10° E daylight
04 Jun - 11:42:25 10° NW 11:48:27 65° NE 11:54:47 10° ESE daylight
04 Jun - 13:25:51 10° NW 13:31:38 43° WSW 13:37:36 10° S daylight
04 Jun - 15:12:17 10° W 15:13:30 11° W 15:14:45 10° WSW visible
